Location: G�ppingen
(48.7089°N, 9.6563°E)
Time: 06:13:23
(UTC+02:00)

M-CUBED/EXP-1 PRIME - Pass Details

Date: 24 March 2019
Orbit: 430 x 671 km, 101.7° (Epoch: 19 April)

Event Time Altitude Azimuth Distance (km) Brightness Sun altitude
Rises 05:45:05 0° 119° (ESE) 2,573 ? -6.0°
Reaches altitude 10° 05:47:31 10° 101° (E) 1,738 ? -5.7°
Maximum altitude 05:50:11 19° 55° (NE) 1,315 ? -5.2°
Drops below altitude 10° 05:53:00 10° 9° (N) 1,850 ? -4.8°
Sets 05:55:41 0° 352° (N) 2,802 ? -4.3°
